Regional Weather Roundup
Issued by NWS Newport/Morehead, NC

Current Version | Previous Version | Text Only | Print | Product List | Glossary Off
Versions: 1 2 3 4 5 6 7 8 9 10 11 12 13 14 15 16 17 18 19 20 21 22 23 24 25 26 27 28 29 30 31 32 33 34 35 36 37 38 39 40 41 42 43 44 45 46 47 48 49 50
000 ASUS42 KMHX 220414 RWRMHX WEATHER ROUNDUP FOR EASTERN NORTH CAROLINA NATIONAL WEATHER SERVICE NEWPORT/MOREHEAD CITY NC 1100 PM EST TUE NOV 21 2017 NOTE: "FAIR" INDICATES FEW OR NO CLOUDS BELOW 12,000 FEET WITH NO SIGNIFICANT WEATHER AND/OR OBSTRUCTIONS TO VISIBILITY NCZ015>017-031-032-045>047-102-103-220500- NORTH COAST CITY SKY/WX TMP DP RH WIND PRES REMARKS EDENTON CLOUDY 53 50 89 CALM 30.06F ELIZABETH CITY CLOUDY 60 56 86 E8 30.05F KITTY HAWK CLOUDY 62 57 86 CALM 30.06F MANTEO CLOUDY 61 57 88 SE6 30.08F $$ NCZ045>047-081-094-103-104-220500- CENTRAL COAST CITY SKY/WX TMP DP RH WIND PRES REMARKS FRISCO CLOUDY 65 63 93 SE10 30.04F $$ NCZ095-097-098-100-101-220500- SOUTHERN COAST CITY SKY/WX TMP DP RH WIND PRES REMARKS BEAUFORT CLOUDY 60 60 100 E5 30.02F CEDAR ISLAND NOT AVBL JACKSONVILLE NOT AVBL PINEY ISLAND NOT AVBL WILMINGTON LGT RAIN 60 58 92 CALM 30.00F $$ NCZ011>013-027>030-043-044-078>080-089-090>093-098-220500- COASTAL PLAIN CITY SKY/WX TMP DP RH WIND PRES REMARKS AHOSKIE CLOUDY 53 49 86 CALM 30.05F CLINTON CLOUDY 56 56 100 CALM 30.02F ELIZABETHTOWN NOT AVBL GOLDSBORO CLOUDY 56 51 83 CALM 30.01F GREENVILLE CLOUDY 55 50 82 CALM 30.06F HAVELOCK NOT AVBL KENANSVILLE CLOUDY 57 52 82 CALM 30.02F KINSTON CLOUDY 55 51 86 CALM 30.04F NEW BERN CLOUDY 55 53 93 CALM 30.04F RICHLANDS CLOUDY 55 52 89 NE3 30.02F ROCKY MOUNT CLOUDY 53 52 96 CALM 30.04F WASHINGTON CLOUDY 53 51 92 CALM 30.06S WHITEVILLE CLOUDY 58 56 92 CALM 29.99F $$ AMZ130-135-150-152-154-156-158-170-250-252-270-ANZ085-086-088-633-658-670-220500- MARINE OBSERVATIONS STATION/POSITION TIME TEMP WIND PRES WAVE SWELL AIR SEA DIR/SP/G HT/PER HT/PER (UTC) (F) (DEG/KT/KT) (MB) (FT/S) (FT/S) CHESAPEAKE LIGHT NOT AVBL 64 E VA BEACH 0350 65 65 120/ 12/ 14 1019.0 2/ 8 2/ 8 DUCK 0348 63 60 110/ 12/ 14 1017.4 2 E DUCK 0400 61 N/A 1/11 OREGON INLET 0348 80/ 3/ 5 N/A 13E OREGON INLT 0348 64 N/A 3/ 5 3/ 5 HATTERAS CG 0348 65 59 120/ 8/ 10 1017.0 DIAMOND BUOY 0350 70 75 140/ 14/ 17 1017.3 5/ 5 CAPE LOOKOUT 0400 90/ 5/ 5 1016.5 BEAUFORT LAB 0348 63 60 80/ 3/ 4 1016.6 30 SE NEW RVR IN 0308 69 67 120/ 6/ 10 1016.9 30 SE NEW RVR IN 0400 67 N/A 4/ 5 27 SE WRIGHTSVLE 0308 71 68 140/ 8/ 14 1016.1 5 SE WRIGHTSVLE 0308 66 64 120/ 4/ 8 1016.4 225 S CAPE HAT 0350 71 76 130/ 19/ 25 1016.4 8/ 7 2/11 41 SE CHARLESTON 0350 69 74 300/ 10/ 14 1014.4 7/ 7 7/ 7 $$

USA.gov is the U.S. government's official web portal to all federal, state and local government web resources and services.